���t,����,�O�C���x,�����t���O,�O�C���Ύ��x,�����t���O,���ԉ��x,�����t���O,���ԑ��Ύ��x,�����t���O,�g�C������,�����t���O,�L�b�`����C���x,�����t���O,��󒲎����x,�����t���O
2004/11/1,0:00,=,2,=,2,18.1,0,78.7,0,20.8,0,19.3,0,15.7,0
2004/11/1,0:15,=,2,=,2,18,0,79.4,0,20.8,0,19.2,0,15.6,0
2004/11/1,0:30,=,2,=,2,18,0,79.5,0,20.8,0,19.1,0,15.7,0
2004/11/1,0:45,=,2,=,2,18,0,81.2,0,20.8,0,19.2,0,16.3,0
2004/11/1,1:00,=,2,=,2,18,0,80.8,0,20.8,0,19.2,0,16.6,0
2004/11/1,1:15,=,2,=,2,18,0,80.8,0,20.8,0,19.1,0,16.6,0
2004/11/1,1:30,=,2,=,2,17.9,0,80.5,0,20.8,0,19.1,0,16.7,0
2004/11/1,1:45,=,2,=,2,17.9,0,80.9,0,20.8,0,19,0,16.8,0
2004/11/1,2:00,=,2,=,2,17.9,0,81.5,0,20.8,0,19,0,16.9,0
2004/11/1,2:15,=,2,=,2,17.8,0,81.8,0,20.7,0,18.9,0,16.9,0
2004/11/1,2:30,=,2,=,2,17.8,0,81.6,0,20.7,0,18.9,0,16.9,0
2004/11/1,2:45,=,2,=,2,17.7,0,81.4,0,20.7,0,18.8,0,16.9,0
2004/11/1,3:00,=,2,=,2,17.7,0,81.6,0,20.7,0,18.8,0,16.9,0
2004/11/1,3:15,=,2,=,2,17.7,0,81.7,0,20.7,0,18.7,0,16.9,0
2004/11/1,3:30,=,2,=,2,17.7,0,81.9,0,20.7,0,18.7,0,16.9,0
2004/11/1,3:45,=,2,=,2,17.7,0,82.1,0,20.7,0,18.6,0,16.9,0
2004/11/1,4:00,=,2,=,2,17.6,0,82.4,0,20.7,0,18.5,0,16.9,0
2004/11/1,4:15,=,2,=,2,17.6,0,82.4,0,20.7,0,18.5,0,16.8,0
2004/11/1,4:30,=,2,=,2,17.5,0,82.4,0,20.6,0,18.5,0,16.9,0
2004/11/1,4:45,=,2,=,2,17.5,0,82.2,0,20.6,0,18.5,0,16.9,0
2004/11/1,5:00,=,2,=,2,17.5,0,82.4,0,20.6,0,18.4,0,16.8,0
2004/11/1,5:15,=,2,=,2,17.4,0,82.3,0,20.6,0,18.4,0,16.8,0
2004/11/1,5:30,=,2,=,2,17.4,0,82.6,0,20.6,0,18.4,0,16.8,0
2004/11/1,5:45,=,2,=,2,17.4,0,82.7,0,20.6,0,18.3,0,16.8,0
2004/11/1,6:00,=,2,=,2,17.3,0,82.3,0,20.5,0,18.2,0,16.8,0
2004/11/1,6:15,=,2,=,2,17.3,0,82.6,0,20.5,0,18.2,0,16.8,0
2004/11/1,6:30,=,2,=,2,17.2,0,82.7,0,20.5,0,18.2,0,16.7,0
2004/11/1,6:45,=,2,=,2,17.1,0,82.8,0,20.5,0,18.1,0,16.7,0
2004/11/1,7:00,=,2,=,2,17.1,0,82.8,0,20.5,0,18.1,0,16.7,0
2004/11/1,7:15,=,2,=,2,17.1,0,83,0,20.5,0,18,0,16.7,0
2004/11/1,7:30,=,2,=,2,17.3,0,82.4,0,20.4,0,17.9,0,16.7,0
2004/11/1,7:45,=,2,=,2,17.6,0,81.4,0,20.4,0,17.9,0,16.7,0
2004/11/1,8:00,=,2,=,2,18.4,0,80,0,20.4,0,17.9,0,16.7,0
2004/11/1,8:15,=,2,=,2,19.3,0,76.9,0,20.4,0,18.5,0,16.5,0
2004/11/1,8:30,=,2,=,2,21.2,0,69,0,20.4,0,18.7,0,16.4,0
2004/11/1,8:45,=,2,=,2,20.6,0,69.8,0,20.7,0,19,0,16.7,0
2004/11/1,9:00,=,2,=,2,20.7,0,69.4,0,21.1,0,19.6,0,16.7,0
2004/11/1,9:15,=,2,=,2,23.8,0,59,0,21.1,0,19.5,0,17.2,0
2004/11/1,9:30,=,2,=,2,26,0,51.5,0,21,0,19.5,0,17.5,0
2004/11/1,9:45,=,2,=,2,25.2,0,52.4,0,21.2,0,19.5,0,17.4,0
2004/11/1,10:00,=,2,=,2,25.3,0,53.5,0,21,0,19.5,0,17.5,0
2004/11/1,10:15,=,2,=,2,29.9,0,42.2,0,20.9,0,19.5,0,18,0
2004/11/1,10:30,=,2,=,2,28.7,0,45.2,0,20.9,0,19.7,0,18.4,0
2004/11/1,10:45,=,2,=,2,25.9,0,51,0,20.9,0,19.9,0,18.5,0
2004/11/1,11:00,=,2,=,2,25.7,0,52.2,0,20.9,0,20.1,0,18.7,0
2004/11/1,11:15,=,2,=,2,25.5,0,53.1,0,20.8,0,20.4,0,18.9,0
2004/11/1,11:30,=,2,=,2,25.4,0,53.5,0,20.8,0,20.6,0,19.1,0
2004/11/1,11:45,=,2,=,2,25.3,0,54.4,0,21.2,0,20.6,0,19.4,0
2004/11/1,12:00,=,2,=,2,25.6,0,53.9,0,21.2,0,20.9,0,19.6,0
2004/11/1,12:15,=,2,=,2,25.5,0,54.6,0,21.2,0,21.2,0,19.6,0
2004/11/1,12:30,=,2,=,2,25.5,0,54.9,0,21.1,0,21.4,0,19.7,0
2004/11/1,12:45,=,2,=,2,25.7,0,55.2,0,21.1,0,21.5,0,19.8,0
2004/11/1,13:00,=,2,=,2,26,0,54.9,0,21.1,0,21.6,0,19.8,0
2004/11/1,13:15,=,2,=,2,25.9,0,54.9,0,21.1,0,21.8,0,19.9,0
2004/11/1,13:30,=,2,=,2,25.9,0,55.2,0,21.1,0,22,0,20.1,0
2004/11/1,13:45,=,2,=,2,25.7,0,55.2,0,21.1,0,22.2,0,20.3,0
2004/11/1,14:00,=,2,=,2,25.4,0,56,0,21.1,0,22.5,0,20.5,0
2004/11/1,14:15,=,2,=,2,25.2,0,56.4,0,21.1,0,22.5,0,20.6,0
2004/11/1,14:30,=,2,=,2,25,0,56.9,0,21.1,0,22.5,0,20.6,0
2004/11/1,14:45,=,2,=,2,24.9,0,57.5,0,21.1,0,22.5,0,20.6,0
2004/11/1,15:00,=,2,=,2,24.6,0,58.5,0,21.1,0,22.5,0,20.6,0
2004/11/1,15:15,=,2,=,2,24.2,0,59.5,0,21.1,0,22.5,0,20.5,0
2004/11/1,15:30,=,2,=,2,24,0,60.1,0,21.1,0,22.4,0,20.5,0
2004/11/1,15:45,=,2,=,2,23.7,0,60.7,0,21.1,0,22.5,0,20.6,0
2004/11/1,16:00,=,2,=,2,23.7,0,60.8,0,21.1,0,22.4,0,20.5,0
2004/11/1,16:15,=,2,=,2,23.5,0,61.6,0,21.2,0,22.3,0,20.4,0
2004/11/1,16:30,=,2,=,2,23.2,0,62.3,0,21.2,0,22.3,0,20.4,0
2004/11/1,16:45,=,2,=,2,22.9,0,63,0,21.2,0,22.3,0,20.5,0
2004/11/1,17:00,=,2,=,2,22.7,0,63.6,0,21.2,0,22.3,0,20.4,0
2004/11/1,17:15,=,2,=,2,22.4,0,64.5,0,21.2,0,22.2,0,20.3,0
2004/11/1,17:30,=,2,=,2,22.1,0,65.2,0,21.2,0,22.1,0,20.2,0
2004/11/1,17:45,=,2,=,2,21.8,0,66,0,21.3,0,22,0,20.2,0
2004/11/1,18:00,=,2,=,2,21.5,0,66.8,0,21.3,0,21.9,0,20.1,0
2004/11/1,18:15,=,2,=,2,21.3,0,67.6,0,21.3,0,21.8,0,19.9,0
2004/11/1,18:30,=,2,=,2,21.1,0,68.8,0,21.3,0,21.7,0,19.8,0
2004/11/1,18:45,=,2,=,2,20.9,0,69.8,0,21.3,0,21.5,0,19.6,0
2004/11/1,19:00,=,2,=,2,20.7,0,70.6,0,21.3,0,21.3,0,19.5,0
2004/11/1,19:15,=,2,=,2,20.5,0,71.9,0,21.4,0,21.3,0,19.4,0
2004/11/1,19:30,=,2,=,2,20.3,0,72.5,0,21.4,0,21.2,0,19.3,0
2004/11/1,19:45,=,2,=,2,20.1,0,73.4,0,21.4,0,21.1,0,19.2,0
2004/11/1,20:00,=,2,=,2,20,0,74.1,0,21.4,0,21,0,19,0
2004/11/1,20:15,=,2,=,2,19.8,0,74.2,0,21.3,0,20.9,0,18.8,0
2004/11/1,20:30,=,2,=,2,19.7,0,74.4,0,21.4,0,20.9,0,18.7,0
2004/11/1,20:45,=,2,=,2,19.6,0,74.4,0,21.4,0,20.8,0,18.6,0
2004/11/1,21:00,=,2,=,2,19.5,0,74.1,0,21.4,0,20.7,0,18.6,0
2004/11/1,21:15,=,2,=,2,19.3,0,73.8,0,21.4,0,20.5,0,18.4,0
2004/11/1,21:30,=,2,=,2,19.2,0,73.7,0,21.4,0,20.4,0,18.4,0
2004/11/1,21:45,=,2,=,2,19.2,0,73.5,0,21.2,0,20.3,0,18.3,0
2004/11/1,22:00,=,2,=,2,19.2,0,72.8,0,21.2,0,20.4,0,17.8,0
2004/11/1,22:15,=,2,=,2,19.1,0,72.2,0,21.2,0,20.2,0,17.6,0
2004/11/1,22:30,=,2,=,2,19.1,0,72,0,21.2,0,20.2,0,17.5,0
2004/11/1,22:45,=,2,=,2,19.1,0,72.2,0,21.2,0,20.1,0,17.4,0
2004/11/1,23:00,=,2,=,2,19,0,72.8,0,21.2,0,20,0,17.3,0
2004/11/1,23:15,=,2,=,2,19,0,73.5,0,21.2,0,20,0,17.2,0
2004/11/1,23:30,=,2,=,2,19,0,74.8,0,21.2,0,20,0,17.1,0
2004/11/1,23:45,=,2,=,2,18.9,0,74.8,0,21.2,0,20,0,17.2,0
2004/11/2,0:00,=,2,=,2,18.8,0,74.6,0,21.2,0,19.9,0,17.6,0
2004/11/2,0:15,=,2,=,2,18.8,0,77.6,0,21.2,0,20,0,17.5,0
2004/11/2,0:30,=,2,=,2,18.7,0,76.4,0,21,0,20,0,17.2,0
2004/11/2,0:45,=,2,=,2,18.7,0,76.1,0,21,0,19.9,0,17.2,0
2004/11/2,1:00,=,2,=,2,18.6,0,76.2,0,21,0,19.8,0,17.2,0
2004/11/2,1:15,=,2,=,2,18.5,0,76.3,0,21,0,19.7,0,17.4,0
2004/11/2,1:30,=,2,=,2,18.5,0,76.3,0,21,0,19.6,0,17.6,0
2004/11/2,1:45,=,2,=,2,18.4,0,76.2,0,21,0,19.5,0,17.7,0
2004/11/2,2:00,=,2,=,2,18.4,0,76.4,0,21,0,19.5,0,17.8,0
2004/11/2,2:15,=,2,=,2,18.3,0,76.4,0,21,0,19.4,0,17.8,0
2004/11/2,2:30,=,2,=,2,18.2,0,76.2,0,21,0,19.3,0,17.8,0
2004/11/2,2:45,=,2,=,2,18.1,0,76.5,0,21,0,19.3,0,17.8,0
2004/11/2,3:00,=,2,=,2,18,0,76.8,0,21,0,19.2,0,17.8,0
2004/11/2,3:15,=,2,=,2,17.9,0,76.7,0,21,0,19.2,0,17.8,0
2004/11/2,3:30,=,2,=,2,17.9,0,76.9,0,21,0,19.1,0,17.7,0
2004/11/2,3:45,=,2,=,2,17.8,0,77,0,21,0,19,0,17.6,0
2004/11/2,4:00,=,2,=,2,17.8,0,77,0,21,0,18.9,0,17.6,0
2004/11/2,4:15,=,2,=,2,17.7,0,77.2,0,21,0,18.9,0,17.6,0
2004/11/2,4:30,=,2,=,2,17.8,0,77.3,0,20.9,0,18.8,0,17.6,0
2004/11/2,4:45,=,2,=,2,17.8,0,77.4,0,20.9,0,18.7,0,17.6,0
2004/11/2,5:00,=,2,=,2,17.8,0,77.4,0,20.9,0,18.7,0,17.6,0
2004/11/2,5:15,=,2,=,2,17.8,0,77.6,0,20.9,0,18.7,0,17.7,0
2004/11/2,5:30,=,2,=,2,17.7,0,77.7,0,20.9,0,18.7,0,17.7,0
2004/11/2,5:45,=,2,=,2,17.7,0,77.9,0,20.9,0,18.7,0,17.6,0
2004/11/2,6:00,=,2,=,2,17.6,0,77.5,0,20.9,0,18.7,0,17.6,0
2004/11/2,6:15,=,2,=,2,17.6,0,77.4,0,20.9,0,18.6,0,17.6,0
2004/11/2,6:30,=,2,=,2,17.6,0,77.4,0,20.8,0,18.6,0,17.6,0
2004/11/2,6:45,=,2,=,2,17.5,0,77.4,0,20.8,0,18.6,0,17.7,0
2004/11/2,7:00,=,2,=,2,17.5,0,77.2,0,20.8,0,18.5,0,17.8,0
2004/11/2,7:15,=,2,=,2,17.5,0,77.1,0,20.8,0,18.5,0,17.8,0
2004/11/2,7:30,=,2,=,2,17.7,0,76.5,0,20.8,0,18.4,0,17.7,0
2004/11/2,7:45,=,2,=,2,17.8,0,75.5,0,20.8,0,18.4,0,17.7,0
2004/11/2,8:00,=,2,=,2,17.9,0,75.5,0,20.8,0,18.4,0,17.6,0
2004/11/2,8:15,=,2,=,2,18,0,74.8,0,20.7,0,18.4,0,17.8,0
2004/11/2,8:30,=,2,=,2,18.1,0,75.9,0,20.7,0,18.4,0,17.7,0
2004/11/2,8:45,=,2,=,2,18.8,0,74.9,0,20.7,0,18.5,0,17.8,0
2004/11/2,9:00,=,2,=,2,19.6,0,71.3,0,20.6,0,18.6,0,18.2,0
2004/11/2,9:15,=,2,=,2,20.3,0,70,0,20.6,0,18.4,0,18.3,0
2004/11/2,9:30,=,2,=,2,23,0,59.7,0,20.6,0,18.5,0,18.5,0
2004/11/2,9:45,=,2,=,2,24.5,0,49.9,0,20.9,0,18.6,0,18.6,0
2004/11/2,10:00,=,2,=,2,26,0,45.5,0,21.1,0,18.9,0,18.6,0
2004/11/2,10:15,=,2,=,2,27.4,0,41.3,0,21.1,0,19.2,0,18.7,0
2004/11/2,10:30,=,2,=,2,26.6,0,42.2,0,21,0,19.6,0,18.9,0
2004/11/2,10:45,=,2,=,2,25,0,46.8,0,21,0,19.8,0,19.1,0
2004/11/2,11:00,=,2,=,2,25.1,0,45.4,0,21,0,20,0,19.3,0
2004/11/2,11:15,=,2,=,2,25.4,0,45.4,0,21,0,20.4,0,19.6,0
2004/11/2,11:30,=,2,=,2,25.9,0,42.2,0,21,0,20.5,0,19.8,0
2004/11/2,11:45,=,2,=,2,25.9,0,41.6,0,20.9,0,20.4,0,19.7,0
2004/11/2,12:00,=,2,=,2,25.8,0,44.6,0,20.9,0,20.9,0,19.8,0
2004/11/2,12:15,=,2,=,2,25.5,0,45,0,20.9,0,21.4,0,20,0
2004/11/2,12:30,=,2,=,2,25,0,47.3,0,20.9,0,21.6,0,20.2,0
2004/11/2,12:45,=,2,=,2,24.8,0,49.3,0,21,0,21.7,0,20.3,0
2004/11/2,13:00,=,2,=,2,24.6,0,50.3,0,21,0,21.8,0,20.3,0
2004/11/2,13:15,=,2,=,2,24.5,0,51.3,0,21,0,22.2,0,20.3,0
2004/11/2,13:30,=,2,=,2,24.4,0,51.6,0,21,0,22.1,0,20.3,0
2004/11/2,13:45,=,2,=,2,24.4,0,52.4,0,21,0,22,0,20.2,0
2004/11/2,14:00,=,2,=,2,24.4,0,52.8,0,21,0,21.9,0,20.2,0
2004/11/2,14:15,=,2,=,2,24.3,0,50.5,0,21,0,21.8,0,20.2,0
2004/11/2,14:30,=,2,=,2,23.8,0,49.3,0,21,0,21.8,0,20.3,0
2004/11/2,14:45,=,2,=,2,23.7,0,49.3,0,21,0,21.9,0,20.4,0
2004/11/2,15:00,=,2,=,2,23.6,0,48.4,0,21.1,0,22,0,20.5,0
2004/11/2,15:15,=,2,=,2,23.2,0,49.6,0,21.1,0,21.9,0,20.5,0
2004/11/2,15:30,=,2,=,2,23.3,0,50.1,0,21.1,0,21.7,0,20.4,0
2004/11/2,15:45,=,2,=,2,23.2,0,49.9,0,21.1,0,21.6,0,20.7,0
2004/11/2,16:00,=,2,=,2,22.8,0,48.4,0,21.1,0,21.4,0,20.5,0
2004/11/2,16:15,=,2,=,2,22.5,0,48.5,0,21.1,0,21.5,0,20.5,0
2004/11/2,16:30,=,2,=,2,22.1,0,49.9,0,21.1,0,21.4,0,20.5,0
2004/11/2,16:45,=,2,=,2,21.9,0,50.2,0,21.1,0,21.2,0,20.5,0
2004/11/2,17:00,=,2,=,2,21.5,0,50.8,0,21.1,0,20.9,0,20.4,0
2004/11/2,17:15,=,2,=,2,21.2,0,51.8,0,21.2,0,20.5,0,20.3,0
2004/11/2,17:30,=,2,=,2,20.9,0,53.9,0,21.2,0,20.1,0,20.2,0
2004/11/2,17:45,=,2,=,2,20.6,0,55.2,0,21.2,0,19.9,0,20,0
2004/11/2,18:00,=,2,=,2,20.2,0,57.1,0,21.2,0,19.8,0,19.8,0
2004/11/2,18:15,=,2,=,2,20,0,59.5,0,21.2,0,19.6,0,19.7,0
2004/11/2,18:30,=,2,=,2,19.9,0,60.7,0,21.2,0,19.6,0,19.6,0
2004/11/2,18:45,=,2,=,2,19.8,0,61.6,0,21.2,0,19.5,0,19.2,0
2004/11/2,19:00,=,2,=,2,19.7,0,63,0,21.2,0,19.5,0,18.9,0
2004/11/2,19:15,=,2,=,2,19.5,0,63.9,0,21.2,0,19.7,0,18.7,0
2004/11/2,19:30,=,2,=,2,19.4,0,64,0,21.2,0,19.9,0,18.5,0
2004/11/2,19:45,=,2,=,2,19.4,0,63.8,0,21.2,0,19.9,0,18.3,0
2004/11/2,20:00,=,2,=,2,19.3,0,65.5,0,21.2,0,20,0,18.1,0
2004/11/2,20:15,=,2,=,2,19.2,0,66.7,0,21,0,19.8,0,17.9,0
2004/11/2,20:30,=,2,=,2,19.3,0,68.8,0,21,0,19.7,0,18,0
2004/11/2,20:45,=,2,=,2,19.2,0,68.4,0,21.1,0,19.8,0,18.3,0
2004/11/2,21:00,=,2,=,2,19.1,0,67.1,0,21.1,0,19.9,0,18.6,0
2004/11/2,21:15,=,2,=,2,19,0,68.1,0,21.1,0,20,0,18.6,0
2004/11/2,21:30,=,2,=,2,19.1,0,70.4,0,21.1,0,20,0,18.6,0
2004/11/2,21:45,=,2,=,2,19.1,0,72,0,21.1,0,19.8,0,18.5,0
2004/11/2,22:00,=,2,=,2,19,0,70,0,21,0,19.8,0,18.8,0
2004/11/2,22:15,=,2,=,2,18.9,0,69,0,21,0,19.9,0,18.8,0
2004/11/2,22:30,=,2,=,2,18.8,0,68.2,0,21,0,20.1,0,18.8,0
2004/11/2,22:45,=,2,=,2,18.8,0,67.7,0,21,0,19.9,0,18.7,0
2004/11/2,23:00,=,2,=,2,18.8,0,68.5,0,21,0,19.7,0,18.6,0
2004/11/2,23:15,=,2,=,2,18.7,0,67.6,0,21,0,19.5,0,18.5,0
2004/11/2,23:30,=,2,=,2,18.7,0,67.2,0,20.7,0,19.4,0,18.5,0
2004/11/2,23:45,=,2,=,2,18.6,0,67.5,0,20.6,0,19.5,0,18.7,0
2004/11/3,0:00,=,2,=,2,18.5,0,69.5,0,20.6,0,19.3,0,18.7,0
2004/11/3,0:15,=,2,=,2,18.5,0,69.2,0,20.6,0,19.2,0,18.7,0
2004/11/3,0:30,=,2,=,2,18.5,0,68.2,0,20.6,0,19.1,0,18.8,0
2004/11/3,0:45,=,2,=,2,18.4,0,68.5,0,20.6,0,19.1,0,18.8,0
2004/11/3,1:00,=,2,=,2,18.4,0,68.2,0,20.6,0,19.1,0,18.7,0
2004/11/3,1:15,=,2,=,2,18.3,0,68.4,0,20.6,0,19,0,18.6,0
2004/11/3,1:30,=,2,=,2,18.2,0,68.7,0,20.6,0,19,0,18.5,0
2004/11/3,1:45,=,2,=,2,18.1,0,68.8,0,20.5,0,19.1,0,18.5,0
2004/11/3,2:00,=,2,=,2,18.1,0,68.9,0,20.5,0,19.1,0,18.5,0
2004/11/3,2:15,=,2,=,2,18.1,0,69,0,20.5,0,19,0,18.4,0
2004/11/3,2:30,=,2,=,2,18,0,69.1,0,20.5,0,18.9,0,18.3,0
2004/11/3,2:45,=,2,=,2,17.9,0,69.1,0,20.5,0,18.9,0,18.3,0
2004/11/3,3:00,=,2,=,2,17.9,0,69.4,0,20.5,0,18.8,0,18.2,0
2004/11/3,3:15,=,2,=,2,17.8,0,69.4,0,20.5,0,18.8,0,18.2,0
2004/11/3,3:30,=,2,=,2,17.8,0,69.5,0,20.5,0,18.7,0,18.2,0
2004/11/3,3:45,=,2,=,2,17.7,0,69.5,0,20.5,0,18.6,0,18.1,0
2004/11/3,4:00,=,2,=,2,17.7,0,69.5,0,20.4,0,18.6,0,18.1,0
2004/11/3,4:15,=,2,=,2,17.6,0,69.4,0,20.4,0,18.5,0,18.1,0
2004/11/3,4:30,=,2,=,2,17.6,0,69.5,0,20.4,0,18.5,0,18.1,0
2004/11/3,4:45,=,2,=,2,17.5,0,69.3,0,20.4,0,18.5,0,18,0
2004/11/3,5:00,=,2,=,2,17.5,0,69.2,0,20.4,0,18.4,0,18,0
2004/11/3,5:15,=,2,=,2,17.5,0,69.2,0,20.4,0,18.4,0,17.9,0
2004/11/3,5:30,=,2,=,2,17.5,0,69.5,0,20.4,0,18.3,0,17.9,0
2004/11/3,5:45,=,2,=,2,17.4,0,69.7,0,20.3,0,18.3,0,17.9,0
2004/11/3,6:00,=,2,=,2,17.4,0,69.9,0,20.3,0,18.2,0,17.9,0
2004/11/3,6:15,=,2,=,2,17.3,0,70.3,0,20.3,0,18.3,0,17.9,0
2004/11/3,6:30,=,2,=,2,17.2,0,70.5,0,20.3,0,18.3,0,17.8,0
2004/11/3,6:45,=,2,=,2,17,0,70.5,0,20.3,0,18.2,0,17.8,0
2004/11/3,7:00,=,2,=,2,16.9,0,71.1,0,20.2,0,18.2,0,17.7,0
2004/11/3,7:15,=,2,=,2,16.7,0,71.5,0,20.2,0,18.1,0,17.6,0
2004/11/3,7:30,=,2,=,2,16.6,0,71.6,0,20.2,0,18,0,17.6,0
2004/11/3,7:45,=,2,=,2,16.6,0,71.8,0,20.2,0,17.9,0,17.5,0
2004/11/3,8:00,=,2,=,2,16.5,0,72,0,20.2,0,17.8,0,17.4,0
2004/11/3,8:15,=,2,=,2,17.2,0,71.1,0,20.2,0,17.7,0,17.3,0
2004/11/3,8:30,=,2,=,2,19,0,64.6,0,20.1,0,17.6,0,17.3,0
2004/11/3,8:45,=,2,=,2,19.3,0,62.3,0,20.1,0,17.6,0,17.2,0
2004/11/3,9:00,=,2,=,2,18.7,0,62,0,20.1,0,17.6,0,17.2,0
2004/11/3,9:15,=,2,=,2,18.7,0,58.6,0,20.3,0,17.8,0,17.3,0
2004/11/3,9:30,=,2,=,2,18.6,0,58.8,0,20.3,0,18,0,17.4,0
2004/11/3,9:45,=,2,=,2,18.6,0,60.9,0,20.2,0,18.1,0,17.5,0
2004/11/3,10:00,=,2,=,2,18.6,0,62.5,0,20.3,0,18,0,17.6,0
2004/11/3,10:15,=,2,=,2,19.1,0,63.1,0,20.3,0,18.2,0,17.6,0
2004/11/3,10:30,=,2,=,2,19.7,0,61.1,0,20.5,0,18.4,0,17.6,0
2004/11/3,10:45,=,2,=,2,19.9,0,59.6,0,20.4,0,18.6,0,17.5,0
2004/11/3,11:00,=,2,=,2,20.2,0,56.6,0,20.4,0,18.9,0,17.6,0
2004/11/3,11:15,=,2,=,2,20.2,0,55.5,0,20.4,0,19.2,0,17.8,0
2004/11/3,11:30,=,2,=,2,20.4,0,53.5,0,20.4,0,19.2,0,17.9,0
2004/11/3,11:45,=,2,=,2,20.5,0,54.8,0,20.3,0,19.3,0,18,0
2004/11/3,12:00,=,2,=,2,20.4,0,57.2,0,20.3,0,19.3,0,18.1,0
2004/11/3,12:15,=,2,=,2,20.6,0,56.7,0,20.3,0,19.3,0,18.1,0
2004/11/3,12:30,=,2,=,2,20.8,0,56,0,20.3,0,19.2,0,18.2,0
2004/11/3,12:45,=,2,=,2,21.2,0,54.5,0,21.1,0,19,0,18.4,0
2004/11/3,13:00,=,2,=,2,21.7,0,55.2,0,21,0,18.2,0,18.7,0
2004/11/3,13:15,=,2,=,2,21.7,0,54.9,0,21,0,18.8,0,18.7,0
2004/11/3,13:30,=,2,=,2,21.9,0,53.9,0,21,0,19.4,0,18.8,0
2004/11/3,13:45,=,2,=,2,22.1,0,53.6,0,20.9,0,19.8,0,18.9,0
2004/11/3,14:00,=,2,=,2,24.5,0,49.2,0,20.9,0,20.1,0,18.9,0
2004/11/3,14:15,=,2,=,2,24.8,0,50.1,0,20.9,0,20.2,0,19,0
2004/11/3,14:30,=,2,=,2,25.1,0,46.2,0,20.9,0,20.3,0,19,0
2004/11/3,14:45,=,2,=,2,24.8,0,47.9,0,21,0,20.7,0,19.7,0
2004/11/3,15:00,=,2,=,2,24.5,0,47.7,0,21,0,21.3,0,20.1,0
2004/11/3,15:15,=,2,=,2,24.1,0,48.2,0,21.1,0,21.5,0,19.5,0
2004/11/3,15:30,=,2,=,2,23.7,0,48.9,0,21,0,21.8,0,19.2,0
2004/11/3,15:45,=,2,=,2,23.3,0,49.6,0,21,0,21.8,0,19.1,0
2004/11/3,16:00,=,2,=,2,22.9,0,50.4,0,21,0,21.5,0,19.2,0
2004/11/3,16:15,=,2,=,2,22.4,0,49.5,0,21,0,21.3,0,19.1,0
2004/11/3,16:30,=,2,=,2,22,0,51.2,0,21,0,21.1,0,19,0
2004/11/3,16:45,=,2,=,2,21.7,0,53.3,0,21,0,20.9,0,18.8,0
2004/11/3,17:00,=,2,=,2,21.3,0,54.4,0,21.1,0,20.8,0,18.8,0
2004/11/3,17:15,=,2,=,2,20.8,0,56,0,21.1,0,20.7,0,18.9,0
2004/11/3,17:30,=,2,=,2,20.4,0,57.4,0,21.1,0,20.6,0,18.9,0
2004/11/3,17:45,=,2,=,2,20,0,59.4,0,21.1,0,20.4,0,18.8,0
2004/11/3,18:00,=,2,=,2,19.7,0,60.9,0,21.1,0,20.1,0,18.8,0
2004/11/3,18:15,=,2,=,2,19.3,0,61.8,0,21.1,0,19.9,0,18.6,0
2004/11/3,18:30,=,2,=,2,19.1,0,64,0,21.1,0,19.8,0,18.4,0
2004/11/3,18:45,=,2,=,2,18.8,0,65.1,0,20.7,0,19.7,0,18.6,0
2004/11/3,19:00,=,2,=,2,18.6,0,66.3,0,20.7,0,19.6,0,18.6,0
2004/11/3,19:15,=,2,=,2,18.5,0,68.3,0,20.7,0,19.5,0,18.6,0
2004/11/3,19:30,=,2,=,2,18.3,0,67.6,0,20.7,0,19.4,0,18.5,0
2004/11/3,19:45,=,2,=,2,18.1,0,67.5,0,20.5,0,19.3,0,18.4,0
2004/11/3,20:00,=,2,=,2,17.9,0,67.7,0,20.5,0,19.2,0,18.4,0
2004/11/3,20:15,=,2,=,2,17.9,0,71.3,0,20.5,0,19.1,0,18.3,0
2004/11/3,20:30,=,2,=,2,17.9,0,69.3,0,20.5,0,19.1,0,18.1,0
2004/11/3,20:45,=,2,=,2,17.8,0,68.4,0,20.5,0,19.1,0,18,0
2004/11/3,21:00,=,2,=,2,17.8,0,68,0,20.5,0,19.5,0,17.9,0
2004/11/3,21:15,=,2,=,2,17.8,0,67.7,0,20.5,0,19.3,0,17.9,0
2004/11/3,21:30,=,2,=,2,17.8,0,68,0,20.5,0,19,0,17.8,0
2004/11/3,21:45,=,2,=,2,17.7,0,68.5,0,20.5,0,18.8,0,17.8,0
2004/11/3,22:00,=,2,=,2,17.6,0,68.4,0,20.5,0,18.6,0,17.8,0
2004/11/3,22:15,=,2,=,2,17.6,0,68.7,0,20.5,0,18.6,0,17.7,0
2004/11/3,22:30,=,2,=,2,17.5,0,68.8,0,20.1,0,18.5,0,17.8,0
2004/11/3,22:45,=,2,=,2,17.5,0,68.7,0,20.2,0,18.4,0,17.7,0
2004/11/3,23:00,=,2,=,2,17.4,0,69.9,0,20.1,0,18.4,0,17.6,0
2004/11/3,23:15,=,2,=,2,17.4,0,70.3,0,20.1,0,18.4,0,17.5,0
2004/11/3,23:30,=,2,=,2,17.3,0,70.3,0,20.1,0,18.4,0,17.6,0
2004/11/3,23:45,=,2,=,2,17.2,0,70,0,20.1,0,18.3,0,17.6,0
2004/11/4,0:00,=,2,=,2,17,0,70.3,0,20,0,18.2,0,17.6,0
2004/11/4,0:15,=,2,=,2,16.9,0,70.6,0,19.9,0,18.2,0,17.6,0
2004/11/4,0:30,=,2,=,2,16.9,0,72.8,0,19.9,0,18,0,17.5,0
2004/11/4,0:45,=,2,=,2,16.7,0,72.9,0,19.9,0,17.9,0,17.4,0
2004/11/4,1:00,=,2,=,2,16.6,0,73.1,0,19.9,0,17.8,0,17.4,0
2004/11/4,1:15,=,2,=,2,16.4,0,73.5,0,20.1,0,17.9,0,17.5,0
2004/11/4,1:30,=,2,=,2,16.2,0,73.9,0,20.1,0,17.8,0,17.4,0
2004/11/4,1:45,=,2,=,2,16,0,74.1,0,20,0,17.7,0,17.3,0
2004/11/4,2:00,=,2,=,2,15.9,0,74.5,0,20,0,17.6,0,17.2,0
2004/11/4,2:15,=,2,=,2,15.7,0,74.9,0,20,0,17.5,0,17.1,0
2004/11/4,2:30,=,2,=,2,15.6,0,75.3,0,20,0,17.4,0,17,0
2004/11/4,2:45,=,2,=,2,15.3,0,75.7,0,19.9,0,17.2,0,16.9,0
2004/11/4,3:00,=,2,=,2,15.2,0,75.9,0,19.9,0,17.1,0,16.9,0
2004/11/4,3:15,=,2,=,2,15,0,76.2,0,19.9,0,17,0,16.8,0
2004/11/4,3:30,=,2,=,2,14.9,0,76.5,0,19.9,0,16.9,0,16.7,0
2004/11/4,3:45,=,2,=,2,14.8,0,76.5,0,19.9,0,16.8,0,16.6,0
2004/11/4,4:00,=,2,=,2,14.7,0,76.9,0,19.9,0,16.7,0,16.5,0
2004/11/4,4:15,=,2,=,2,14.6,0,77.3,0,19.8,0,16.6,0,16.4,0
2004/11/4,4:30,=,2,=,2,14.6,0,77.7,0,19.8,0,16.5,0,16.4,0
2004/11/4,4:45,=,2,=,2,14.5,0,78.1,0,19.8,0,16.4,0,16.3,0
2004/11/4,5:00,=,2,=,2,14.4,0,78.5,0,19.8,0,16.3,0,16.2,0
2004/11/4,5:15,=,2,=,2,14.3,0,78.7,0,19.7,0,16.2,0,16.2,0
2004/11/4,5:30,=,2,=,2,14.2,0,78.6,0,19.7,0,16.1,0,16.1,0
2004/11/4,5:45,=,2,=,2,14.1,0,78.9,0,19.7,0,16.1,0,16,0
2004/11/4,6:00,=,2,=,2,14,0,79,0,19.7,0,16,0,15.9,0
2004/11/4,6:15,=,2,=,2,13.9,0,78.8,0,19.6,0,15.8,0,15.8,0
2004/11/4,6:30,=,2,=,2,13.9,0,79.1,0,19.6,0,15.7,0,15.7,0
2004/11/4,6:45,=,2,=,2,13.8,0,79.2,0,19.6,0,15.6,0,15.6,0
2004/11/4,7:00,=,2,=,2,13.7,0,78.9,0,19.5,0,15.5,0,15.5,0
2004/11/4,7:15,=,2,=,2,13.8,0,78.8,0,19.5,0,15.4,0,15.4,0
2004/11/4,7:30,=,2,=,2,13.9,0,78.2,0,19.5,0,15.3,0,15.4,0
2004/11/4,7:45,=,2,=,2,14.1,0,76.9,0,19.4,0,15.2,0,15.3,0
2004/11/4,8:00,=,2,=,2,14.4,0,76.2,0,19.4,0,15.2,0,15.3,0
2004/11/4,8:15,=,2,=,2,16.8,0,68.8,0,19.4,0,15.1,0,15.2,0
2004/11/4,8:30,=,2,=,2,19.7,0,57.2,0,19.3,0,15.1,0,15.2,0
2004/11/4,8:45,=,2,=,2,23,0,48.9,0,19.3,0,15.2,0,15.2,0
2004/11/4,9:00,=,2,=,2,24.7,0,43.1,0,19.3,0,15.3,0,15.2,0
2004/11/4,9:15,=,2,=,2,26.2,0,40.2,0,19.2,0,15.5,0,15.2,0
2004/11/4,9:30,=,2,=,2,27,0,37.1,0,20,0,15.7,0,15.3,0
2004/11/4,9:45,=,2,=,2,27.8,0,35.6,0,19.9,0,16.6,0,15.4,0
2004/11/4,10:00,=,2,=,2,30,0,33.1,0,19.9,0,17,0,15.6,0
2004/11/4,10:15,=,2,=,2,32,0,29.1,0,20.1,0,17.2,0,15.8,0
2004/11/4,10:30,=,2,=,2,27.8,0,31.2,0,20.1,0,17.3,0,16.1,0
2004/11/4,10:45,=,2,=,2,26.7,0,33.3,0,20,0,17.6,0,16.6,0
2004/11/4,11:00,=,2,=,2,25.8,0,34.5,0,20,0,18.3,0,16.6,0
2004/11/4,11:15,=,2,=,2,25.6,0,36,0,19.9,0,18.3,0,16.8,0
2004/11/4,11:30,=,2,=,2,25.3,0,33.8,0,19.9,0,18.4,0,17.1,0
2004/11/4,11:45,=,2,=,2,25,0,35.8,0,19.9,0,18.5,0,17.5,0
2004/11/4,12:00,=,2,=,2,25,0,36.3,0,19.8,0,18.8,0,17.9,0
2004/11/4,12:15,=,2,=,2,25,0,37.3,0,20.5,0,19,0,18.2,0
2004/11/4,12:30,=,2,=,2,25,0,37.6,0,20.6,0,19.1,0,18.5,0
2004/11/4,12:45,=,2,=,2,25,0,38.9,0,20.6,0,19.3,0,18.6,0
2004/11/4,13:00,=,2,=,2,25,0,40.2,0,20.5,0,19.5,0,18.5,0
2004/11/4,13:15,=,2,=,2,25,0,41,0,20.5,0,19.7,0,18.6,0
2004/11/4,13:30,=,2,=,2,25,0,42,0,20.5,0,19.9,0,18.8,0
2004/11/4,13:45,=,2,=,2,25.3,0,43.2,0,20.5,0,20.1,0,18.9,0
2004/11/4,14:00,=,2,=,2,25.5,0,43.2,0,20.5,0,20.3,0,19,0
2004/11/4,14:15,=,2,=,2,25.4,0,44.3,0,20.4,0,20.5,0,19.1,0
2004/11/4,14:30,=,2,=,2,25.1,0,44.3,0,20.5,0,20.8,0,19.3,0
2004/11/4,14:45,=,2,=,2,24.8,0,45.4,0,20.6,0,21.1,0,19.4,0
2004/11/4,15:00,=,2,=,2,24.6,0,46.8,0,20.6,0,21.3,0,19.5,0
2004/11/4,15:15,=,2,=,2,24.3,0,48,0,20.6,0,21.3,0,19.6,0
2004/11/4,15:30,=,2,=,2,24,0,49.1,0,20.7,0,21.3,0,19.6,0
2004/11/4,15:45,=,2,=,2,23.7,0,49.9,0,20.7,0,21.3,0,19.6,0
2004/11/4,16:00,=,2,=,2,23.5,0,50.8,0,20.7,0,21.4,0,19.6,0
2004/11/4,16:15,=,2,=,2,23.2,0,51.6,0,20.7,0,21.4,0,19.6,0
2004/11/4,16:30,=,2,=,2,22.9,0,52.5,0,20.7,0,21.3,0,19.5,0
2004/11/4,16:45,=,2,=,2,22.6,0,53.5,0,20.7,0,21.3,0,19.5,0
2004/11/4,17:00,=,2,=,2,22.2,0,54.5,0,20.7,0,21.3,0,19.4,0
2004/11/4,17:15,=,2,=,2,21.8,0,53.4,0,20.7,0,21.2,0,19.3,0
2004/11/4,17:30,=,2,=,2,21.5,0,54.5,0,20.7,0,21.1,0,19.3,0
2004/11/4,17:45,=,2,=,2,21.1,0,55.7,0,20.8,0,20.9,0,19.1,0
2004/11/4,18:00,=,2,=,2,20.7,0,56.7,0,20.8,0,20.5,0,18.8,0
2004/11/4,18:15,=,2,=,2,20.3,0,58.8,0,20.8,0,20.3,0,18.7,0
2004/11/4,18:30,=,2,=,2,20.1,0,60.8,0,20.8,0,20.2,0,18.5,0
2004/11/4,18:45,=,2,=,2,19.9,0,62.1,0,20.8,0,20,0,18.2,0
2004/11/4,19:00,=,2,=,2,19.7,0,63.3,0,20.8,0,19.9,0,18.1,0
2004/11/4,19:15,=,2,=,2,19.6,0,65.8,0,20.9,0,19.9,0,18.1,0
2004/11/4,19:30,=,2,=,2,19.3,0,66.5,0,20.9,0,19.9,0,18.1,0
2004/11/4,19:45,=,2,=,2,19.1,0,66.2,0,20.9,0,19.8,0,18,0
2004/11/4,20:00,=,2,=,2,18.9,0,65.8,0,20.9,0,19.8,0,17.9,0
2004/11/4,20:15,=,2,=,2,18.7,0,67.1,0,20.9,0,19.6,0,18.1,0
2004/11/4,20:30,=,2,=,2,18.6,0,68.5,0,20.9,0,19.6,0,17.5,0
2004/11/4,20:45,=,2,=,2,18.4,0,68.7,0,20.9,0,19.6,0,16.8,0
2004/11/4,21:00,=,2,=,2,18.2,0,68.9,0,21,0,20,0,16.5,0
2004/11/4,21:15,=,2,=,2,18.1,0,69.6,0,21,0,20.4,0,16.2,0
2004/11/4,21:30,=,2,=,2,18,0,69.7,0,21,0,19.9,0,15.9,0
2004/11/4,21:45,=,2,=,2,17.9,0,69.5,0,21,0,19.4,0,15.6,0
2004/11/4,22:00,=,2,=,2,17.7,0,69,0,21,0,19.4,0,15.3,0
2004/11/4,22:15,=,2,=,2,17.6,0,69.6,0,21,0,19,0,15.1,0
2004/11/4,22:30,=,2,=,2,17.4,0,69.6,0,21,0,18.8,0,15,0
2004/11/4,22:45,=,2,=,2,17.3,0,69.7,0,21,0,18.5,0,14.7,0
2004/11/4,23:00,=,2,=,2,17.2,0,70.4,0,21,0,18.4,0,14.6,0
2004/11/4,23:15,=,2,=,2,17.1,0,70.4,0,21,0,18.3,0,14.5,0
2004/11/4,23:30,=,2,=,2,17,0,70.9,0,21,0,18.1,0,14.3,0
2004/11/4,23:45,=,2,=,2,17.1,0,77.3,0,21,0,18.1,0,14.3,0
2004/11/5,0:00,=,2,=,2,16.9,0,76.2,0,20.7,0,17.9,0,14.3,0
2004/11/5,0:15,=,2,=,2,16.7,0,73.8,0,20.4,0,17.9,0,14.2,0
2004/11/5,0:30,=,2,=,2,16.5,0,75.4,0,20.4,0,18.5,0,14.7,0
2004/11/5,0:45,=,2,=,2,16.4,0,75.8,0,20.4,0,18.2,0,14.3,0
2004/11/5,1:00,=,2,=,2,16.2,0,74.6,0,20.4,0,17.8,0,14,0
2004/11/5,1:15,=,2,=,2,16.1,0,74.3,0,20.4,0,17.5,0,13.9,0
2004/11/5,1:30,=,2,=,2,16,0,75.9,0,20.3,0,17.5,0,13.7,0
2004/11/5,1:45,=,2,=,2,15.8,0,76.1,0,20.3,0,17.3,0,13.6,0
2004/11/5,2:00,=,2,=,2,15.7,0,76.4,0,20.3,0,17.2,0,13.7,0
2004/11/5,2:15,=,2,=,2,15.6,0,76.6,0,20.3,0,17.2,0,14.2,0
2004/11/5,2:30,=,2,=,2,15.4,0,76.7,0,20.3,0,17.1,0,14.3,0
2004/11/5,2:45,=,2,=,2,15.3,0,76.8,0,20.3,0,17,0,14.3,0
2004/11/5,3:00,=,2,=,2,15.2,0,77,0,20.2,0,16.9,0,14.3,0
2004/11/5,3:15,=,2,=,2,15.1,0,77.1,0,20.2,0,16.8,0,14.3,0
2004/11/5,3:30,=,2,=,2,15,0,77.2,0,20.2,0,16.7,0,14.2,0
2004/11/5,3:45,=,2,=,2,14.9,0,77.2,0,20.2,0,16.6,0,14.2,0
2004/11/5,4:00,=,2,=,2,14.8,0,77.4,0,20.2,0,16.5,0,14.1,0
2004/11/5,4:15,=,2,=,2,14.7,0,77.7,0,20.2,0,16.4,0,14.1,0
2004/11/5,4:30,=,2,=,2,14.6,0,78,0,20.1,0,16.3,0,14.1,0
2004/11/5,4:45,=,2,=,2,14.5,0,78.3,0,20.1,0,16.2,0,14,0
2004/11/5,5:00,=,2,=,2,14.5,0,78.5,0,20.1,0,16.1,0,14,0
2004/11/5,5:15,=,2,=,2,14.4,0,78.6,0,20,0,16,0,13.9,0
2004/11/5,5:30,=,2,=,2,14.4,0,78.7,0,20,0,15.9,0,13.9,0